This demonstration page uses our WeatherBlox Daily Observations layout. Learn more.

Left ArrowRight Arrow

36.17497, -115.13722

Hourly Observations for August 8, 2019

Temp ( °F °C ) Dew Point ( °F °C ) Humidity (%) Winds ( mph kmh ) Pressure ( in mb ) Visibility ( mi km ) Precip ( " mm )
12:53 am 00:53 Clear 82 27.8 56 13.3 41 41 Calm 29.88 1012 10 16 0.00 0.00
1:53 am 01:53 Clear 82 27.8 56 13.3 41 41 WSW 3 6 29.88 1012 10 16 0.00 0.00
2:53 am 02:53 Clear 80 26.7 56 13.3 44 44 E 3 6 29.88 1012 10 16 0.00 0.00
3:53 am 03:53 Clear 80 26.7 57 13.9 45 45 Calm 29.89 1012 10 16 0.00 0.00
4:53 am 04:53 Clear 78 25.6 57 13.9 48 48 Calm 29.89 1012 10 16 0.00 0.00
5:53 am 05:53 Clear 77 25 58 14.4 52 52 WNW 5 7 29.91 1013 10 16 0.00 0.00
6:53 am 06:53 Sunny 79 26.1 58 14.4 49 49 Calm 29.92 1013 10 16 0.00 0.00
7:53 am 07:53 Sunny 81 27.2 58 14.4 45 45 SE 5 7 29.93 1014 10 16 0.00 0.00
9:53 am 09:53 Sunny 87 30.6 55 12.8 34 34 ESE 6 9 29.93 1014 10 16 0.00 0.00
10:53 am 10:53 Sunny 90 32.2 54 12.2 29 29 E 5 7 29.91 1013 10 16 0.00 0.00
11:53 am 11:53 Sunny 92 33.3 53 11.7 27 27 S 6 9 29.90 1013 10 16 0.00 0.00
12:53 pm 12:53 Sunny 94 34.4 52 11.1 24 24 VRB 3 6 29.87 1012 10 16 0.00 0.00
1:53 pm 13:53 Sunny 97 36.1 52 11.1 22 22 SSE 8 13 29.84 1010 10 16 0.00 0.00
2:53 pm 14:53 Sunny 100 37.8 50 10 18 18 E 10 17 29.80 1009 10 16 0.00 0.00
3:53 pm 15:53 Sunny 100 37.8 51 10.6 19 19 SSE 12 19 29.77 1008 10 16 0.00 0.00
4:53 pm 16:53 Sunny 98 36.7 50 10 20 20 Calm 29.75 1008 10 16 0.00 0.00
5:53 pm 17:53 Sunny 99 37.2 49 9.4 18 18 S 8 13 29.74 1007 10 16 0.00 0.00
6:53 pm 18:53 Sunny 98 36.7 47 8.3 17 17 S 10 17 29.73 1007 10 16 0.00 0.00
7:53 pm 19:53 Clear 97 36.1 48 8.9 19 19 SSW 10 17 29.74 1007 10 16 0.00 0.00
8:53 pm 20:53 Clear 97 36.1 39 3.9 13 13 SSW 7 11 29.76 1008 10 16 0.00 0.00
9:53 pm 21:53 Clear 96 35.6 39 3.9 14 14 Calm 29.78 1008 10 16 0.00 0.00
10:53 pm 22:53 Clear 93 33.9 42 5.6 17 17 SW 6 9 29.78 1008 10 16 0.00 0.00
11:53 pm 23:53 Clear 90 32.2 43 6.1 19 19 W 6 9 29.78 1009 10 16 0.00 0.00

Powered by AerisWeather